When you browse on this site, cookies collect data to enhance your experience and personalize the content and advertising you see.
Visit our Privacy Policy to learn more. By continuing to use the site, you agree to this use of cookies and data.
  • In Slovakia
  • List of Countries
  • For 7 days
  • Water Temperature
  • Weather Map
  • Weather Widgets
  • user-avatar
    Login

    Hourly Weather Quito

    Today, 18 September, Wednesday

    Time Temperature Precipitation Wind Pressure Humidity
    00:00 +17°C° 0 mm 0 mps 622 mmHg 32%
    01:00 +17°C° 0 mm 0 mps 622 mmHg 29%
    02:00 +16°C° 0 mm 0 mps 622 mmHg 31%
    03:00 +16°C° 0 mm 1 mps 622 mmHg 33%
    04:00 +15°C° 0 mm 1 mps 621 mmHg 36%
    05:00 +18°C° 0 mm 1 mps 622 mmHg 33%
    06:00 +19°C° 0 mm 1 mps 623 mmHg 29%
    07:00 +22°C° 0 mm 1 mps 624 mmHg 26%
    08:00 +24°C° 0 mm 2 mps 625 mmHg 23%
    09:00 +27°C° 0 mm 3 mps 625 mmHg 20%
    10:00 +29°C° 0 mm 4 mps 626 mmHg 16%
    11:00 +32°C° 0 mm 4 mps 625 mmHg 15%
    12:00 +33°C° 0 mm 3 mps 625 mmHg 14%
    13:00 +34°C° 0 mm 2 mps 624 mmHg 13%
    14:00 +34°C° 0 mm 2 mps 624 mmHg 13%
    15:00 +34°C° 0 mm 2 mps 623 mmHg 13%
    16:00 +33°C° 0 mm 1 mps 623 mmHg 13%
    17:00 +30°C° 0 mm 1 mps 622 mmHg 16%
    18:00 +26°C° 0 mm 1 mps 621 mmHg 20%
    19:00 +23°C° 0 mm 1 mps 621 mmHg 23%
    20:00 +22°C° 0 mm 1 mps 621 mmHg 24%
    21:00 +22°C° 0 mm 1 mps 622 mmHg 24%
    22:00 +21°C° 0 mm 1 mps 622 mmHg 25%
    23:00 +20°C° 0 mm 1 mps 622 mmHg 26%

    Tomorrow, 19 September, Thursday

    Time Temperature Precipitation Wind Pressure Humidity
    00:00 +19°C° 0 mm 1 mps 621 mmHg 27%
    01:00 +18°C° 0 mm 1 mps 621 mmHg 29%
    02:00 +16°C° 0 mm 1 mps 621 mmHg 31%
    03:00 +15°C° 0 mm 1 mps 621 mmHg 33%
    04:00 +13°C° 0 mm 0 mps 621 mmHg 35%
    05:00 +15°C° 0 mm 0 mps 622 mmHg 33%
    06:00 +17°C° 0 mm 0 mps 623 mmHg 31%
    07:00 +20°C° 0 mm 1 mps 624 mmHg 28%
    08:00 +24°C° 0 mm 2 mps 625 mmHg 25%
    09:00 +27°C° 0 mm 3 mps 625 mmHg 21%
    10:00 +32°C° 0 mm 5 mps 626 mmHg 18%
    11:00 +33°C° 0 mm 4 mps 625 mmHg 16%
    12:00 +34°C° 0 mm 4 mps 625 mmHg 15%
    13:00 +35°C° 0 mm 3 mps 624 mmHg 13%
    14:00 +35°C° 0 mm 3 mps 624 mmHg 13%
    15:00 +35°C° 0 mm 3 mps 623 mmHg 12%
    16:00 +35°C° 0 mm 3 mps 623 mmHg 11%
    17:00 +30°C° 0 mm 2 mps 622 mmHg 14%
    18:00 +26°C° 0 mm 1 mps 621 mmHg 18%
    19:00 +23°C° 0 mm 1 mps 620 mmHg 21%
    20:00 +22°C° 0 mm 1 mps 621 mmHg 22%
    21:00 +21°C° 0 mm 1 mps 621 mmHg 23%
    22:00 +21°C° 0 mm 1 mps 622 mmHg 23%
    23:00 +20°C° 0 mm 1 mps 621 mmHg 37%

    Day after tomorrow, 20 September, Friday

    Time Temperature Precipitation Wind Pressure Humidity
    00:00 +18°C° 0 mm 2 mps 621 mmHg 51%
    01:00 +17°C° 0 mm 2 mps 621 mmHg 65%
    02:00 +16°C° 0 mm 2 mps 621 mmHg 70%
    03:00 +15°C° 0 mm 2 mps 621 mmHg 75%
    04:00 +15°C° 0 mm 2 mps 621 mmHg 80%
    05:00 +16°C° 0 mm 2 mps 622 mmHg 72%
    06:00 +17°C° 0 mm 2 mps 623 mmHg 64%
    07:00 +19°C° 0 mm 2 mps 623 mmHg 56%
    08:00 +25°C° 0 mm 2 mps 625 mmHg 44%
    09:00 +30°C° 0 mm 1 mps 626 mmHg 33%
    10:00 +34°C° 0 mm 0 mps 628 mmHg 21%
    11:00 +34°C° 0 mm 1 mps 626 mmHg 20%
    12:00 +34°C° 0 mm 2 mps 625 mmHg 19%
    13:00 +32°C° 0 mm 2 mps 623 mmHg 18%
    14:00 +32°C° 0 mm 2 mps 623 mmHg 18%
    15:00 +32°C° 0 mm 2 mps 623 mmHg 17%
    16:00 +32°C° 0 mm 2 mps 623 mmHg 17%
    17:00 +29°C° 0 mm 1 mps 622 mmHg 21%
    18:00 +26°C° 0 mm 1 mps 622 mmHg 26%
    19:00 +21°C° 0 mm 0 mps 621 mmHg 30%
    20:00 +23°C° 0 mm 1 mps 621 mmHg 33%
    21:00 +21°C° 0 mm 2 mps 621 mmHg 36%
    22:00 +20°C° 0 mm 2 mps 621 mmHg 40%
    23:00 +19°C° 0 mm 2 mps 621 mmHg 45%

    21 September, Saturday

    Time Temperature Precipitation Wind Pressure Humidity
    00:00 +18°C° 0 mm 2 mps 621 mmHg 51%
    01:00 +17°C° 0 mm 2 mps 620 mmHg 56%
    02:00 +16°C° 0 mm 2 mps 620 mmHg 61%
    03:00 +15°C° 0 mm 2 mps 620 mmHg 66%
    04:00 +15°C° 0 mm 2 mps 620 mmHg 71%
    05:00 +16°C° 0 mm 2 mps 621 mmHg 65%
    06:00 +18°C° 0 mm 2 mps 622 mmHg 58%
    07:00 +19°C° 0 mm 2 mps 623 mmHg 52%
    08:00 +25°C° 0 mm 2 mps 624 mmHg 42%
    09:00 +29°C° 0 mm 1 mps 625 mmHg 31%
    10:00 +34°C° 0 mm 1 mps 626 mmHg 20%
    11:00 +33°C° 0 mm 1 mps 625 mmHg 20%
    12:00 +32°C° 0 mm 2 mps 624 mmHg 20%
    13:00 +31°C° 0 mm 2 mps 622 mmHg 20%
    14:00 +31°C° 0 mm 2 mps 622 mmHg 22%
    15:00 +30°C° 0 mm 3 mps 622 mmHg 23%
    16:00 +30°C° 0 mm 4 mps 622 mmHg 24%
    17:00 +27°C° 0 mm 3 mps 621 mmHg 30%
    18:00 +25°C° 0 mm 3 mps 621 mmHg 36%
    19:00 +21°C° 0 mm 3 mps 620 mmHg 42%
    20:00 +20°C° 0 mm 3 mps 621 mmHg 44%
    21:00 +20°C° 0 mm 3 mps 621 mmHg 46%
    22:00 +19°C° 0 mm 3 mps 621 mmHg 49%
    23:00 +19°C° 0 mm 2 mps 621 mmHg 50%

    22 September, Sunday

    Time Temperature Precipitation Wind Pressure Humidity
    00:00 +18°C° 0 mm 2 mps 620 mmHg 52%
    01:00 +18°C° 0 mm 2 mps 620 mmHg 53%
    02:00 +17°C° 0 mm 2 mps 620 mmHg 55%
    03:00 +17°C° 0 mm 2 mps 620 mmHg 57%
    04:00 +16°C° 0 mm 2 mps 620 mmHg 58%
    05:00 +18°C° 0 mm 2 mps 621 mmHg 53%
    06:00 +19°C° 0 mm 2 mps 622 mmHg 48%
    07:00 +22°C° 0 mm 1 mps 623 mmHg 43%
    08:00 +25°C° 0 mm 2 mps 624 mmHg 35%
    09:00 +29°C° 0 mm 2 mps 625 mmHg 28%
    10:00 +34°C° 0 mm 2 mps 626 mmHg 20%
    11:00 +32°C° 0 mm 2 mps 625 mmHg 20%
    12:00 +32°C° 0 mm 1 mps 624 mmHg 19%
    13:00 +32°C° 0 mm 1 mps 623 mmHg 19%
    14:00 +31°C° 0 mm 1 mps 622 mmHg 20%
    15:00 +31°C° 0 mm 1 mps 622 mmHg 21%
    16:00 +31°C° 0 mm 1 mps 622 mmHg 22%
    17:00 +28°C° 0 mm 1 mps 621 mmHg 27%
    18:00 +25°C° 0 mm 2 mps 621 mmHg 33%
    19:00 +23°C° 0 mm 2 mps 620 mmHg 38%
    20:00 +21°C° 0 mm 2 mps 621 mmHg 40%
    21:00 +21°C° 0 mm 2 mps 621 mmHg 41%
    22:00 +21°C° 0 mm 2 mps 622 mmHg 43%
    23:00 +20°C° 0 mm 2 mps 622 mmHg 45%

    23 September, Monday

    Time Temperature Precipitation Wind Pressure Humidity
    00:00 +19°C° 0 mm 2 mps 622 mmHg 47%
    01:00 +19°C° 0 mm 2 mps 621 mmHg 49%
    02:00 +18°C° 0 mm 2 mps 621 mmHg 52%
    03:00 +17°C° 0 mm 2 mps 621 mmHg 56%
    04:00 +17°C° 0 mm 2 mps 621 mmHg 59%
    05:00 +18°C° 0 mm 2 mps 622 mmHg 55%
    06:00 +20°C° 0 mm 1 mps 623 mmHg 51%
    07:00 +21°C° 0 mm 1 mps 623 mmHg 48%
    08:00 +25°C° 0 mm 1 mps 624 mmHg 38%
    09:00 +30°C° 0 mm 1 mps 626 mmHg 28%
    10:00 +34°C° 0 mm 1 mps 627 mmHg 18%
    11:00 +34°C° 0 mm 1 mps 626 mmHg 18%
    12:00 +34°C° 0 mm 2 mps 624 mmHg 18%
    13:00 +34°C° 0 mm 2 mps 623 mmHg 18%
    14:00 +34°C° 0 mm 2 mps 623 mmHg 19%
    15:00 +32°C° 0 mm 2 mps 623 mmHg 19%
    16:00 +32°C° 0 mm 2 mps 622 mmHg 20%
    17:00 +29°C° 0 mm 2 mps 622 mmHg 25%
    18:00 +26°C° 0 mm 1 mps 622 mmHg 29%
    19:00 +24°C° 0 mm 1 mps 621 mmHg 34%
    20:00 +23°C° 0 mm 2 mps 622 mmHg 38%
    21:00 +23°C° 0 mm 2 mps 622 mmHg 41%
    22:00 +22°C° 0 mm 3 mps 623 mmHg 45%
    23:00 +20°C° 0 mm 3 mps 622 mmHg 50%
    Show more